sat.trackr.live / text

‹ back to catalog

STARLINK-34281

NORAD 64260 · 2025-120E

PAYLOAD ACTIVE UNKNOWN

§ Identity

Operator
Country
US
Launch date
2025-06-04
Launch site
AFWTR
Launch vehicle
Mass (kg)
RCS (m²)

Purposes: comms

External: N2YO · Heavens-Above · Gunter

§ Orbital elements

Epoch: 2026-05-24T22:47:34.020384Z

Period
93.79 min
Inclination
53.1587°
Eccentricity
0.0001460
Mean motion
15.35348972 rev/d
Perigee alt
458.9 km
Apogee alt
460.9 km
Semi-major
6,838.0 km
B*
6.1828e-4
RAAN
120.2199°
Arg perigee
226.6158°
Mean anomaly
133.4723°
Rev number
5,557

§ Raw data

STARLINK-342811 64260U 25120E   26144.94969931  .00021212  00000+0  61828-3 0  99902 64260  53.1587 120.2199 0001460 226.6158 133.4723 15.35348972 55576

JSON: /api/v1/satellites/64260 · /tle

For live sub-satellite position, see the globe view (requires WebGL).

§ Visibility from observer

Set your observer location to see the next 7 days of passes ≥ 10°. The values pass through the URL so the page stays shareable.

No JS? Fill the form by hand. The geolocation button needs JavaScript.